"Datum/tijd (MEZT)";"astronomisch [cm]";"waterstand [cm]";"verwachte opzet";"verwachting RWS"
2024-04-18 01:00;21;40;;41
2024-04-18 01:10;15;34;;35
2024-04-18 01:20;9;29;;29
2024-04-18 01:30;2;22;;21
2024-04-18 01:40;-5;15;;14
2024-04-18 01:50;-11;6;;8
2024-04-18 02:00;-18;-2;;0
2024-04-18 02:10;-25;-9;;-8
2024-04-18 02:20;-32;-16;;-16
2024-04-18 02:30;-38;-22;;-23
2024-04-18 02:40;-44;-28;;-29
2024-04-18 02:50;-50;-34;;-36
2024-04-18 03:00;-56;-42;;-43
2024-04-18 03:10;-62;-48;;-49
2024-04-18 03:20;-68;-54;;-55
2024-04-18 03:30;-73;-59;;-60
2024-04-18 03:40;-79;-64;;-66
2024-04-18 03:50;-84;-68;;-71
2024-04-18 04:00;-88;-73;;-75
2024-04-18 04:10;-93;-78;;-81
2024-04-18 04:20;-96;-81;;-84
2024-04-18 04:30;-99;-85;;-88
2024-04-18 04:40;-102;-88;;-92
2024-04-18 04:50;-103;-90;;-93
2024-04-18 05:00;-104;-92;;-95
2024-04-18 05:10;-105;-93;;-96
2024-04-18 05:20;-104;-93;;-95
2024-04-18 05:30;-104;-92;;-95
2024-04-18 05:40;-102;-90;;-94
2024-04-18 05:50;-100;-89;;-92
2024-04-18 06:00;-98;-89;;-90
2024-04-18 06:10;-95;-87;;-88
2024-04-18 06:20;-91;-85;;-85
2024-04-18 06:30;-87;-83;;-83
2024-04-18 06:40;-83;-80;;-81
2024-04-18 06:50;-78;-77;;-78
2024-04-18 07:00;-73;-74;;-71
2024-04-18 07:10;-68;-69;;-67
2024-04-18 07:20;-62;-65;;-63
2024-04-18 07:30;-57;-60;;-59
2024-04-18 07:40;-52;-56;;-55
2024-04-18 07:50;-46;-52;;-49
2024-04-18 08:00;-41;-46;;-44
2024-04-18 08:10;-35;-39;;-38
2024-04-18 08:20;-29;-32;;-32
2024-04-18 08:30;-23;-25;;-26
2024-04-18 08:40;-16;-19;;-19
2024-04-18 08:50;-9;-11;;-12
2024-04-18 09:00;-2;-4;;-4
2024-04-18 09:10;6;5;;5
2024-04-18 09:20;13;16;;13
2024-04-18 09:30;21;26;;23
2024-04-18 09:40;29;35;;33
2024-04-18 09:50;36;46;;42
2024-04-18 10:00;44;56;;53
2024-04-18 10:10;51;66;;61
2024-04-18 10:20;58;74;;69
2024-04-18 10:30;65;82;;76
2024-04-18 10:40;71;88;;83
2024-04-18 10:50;77;95;;88
2024-04-18 11:00;82;99;;92
2024-04-18 11:10;86;104;;94
2024-04-18 11:20;90;107;;97
2024-04-18 11:30;92;109;;98
2024-04-18 11:40;94;;;98
2024-04-18 11:50;94;110;;98
2024-04-18 12:00;94;109;;97
2024-04-18 12:10;92;108;;95
2024-04-18 12:20;90;105;;94
2024-04-18 12:30;88;102;;92
2024-04-18 12:40;84;99;;88
2024-04-18 12:50;81;95;;86
2024-04-18 13:00;77;92;;87
2024-04-18 13:10;72;87;;83
2024-04-18 13:20;67;82;;78
2024-04-18 13:30;62;76;;74
2024-04-18 13:40;57;71;;69
2024-04-18 13:50;51;66;;63
2024-04-18 14:00;45;59;;55
2024-04-18 14:10;39;51;;49
2024-04-18 14:20;32;43;;41
2024-04-18 14:30;25;35;;32
2024-04-18 14:40;19;28;;25
2024-04-18 14:50;12;21;;16
2024-04-18 15:00;5;12;;7
2024-04-18 15:10;-2;5;;-1
2024-04-18 15:20;-10;-3;;-11
2024-04-18 15:30;-17;-10;;-19
2024-04-18 15:40;-24;-18;;-26
2024-04-18 15:50;-31;-26;;-34
2024-04-18 16:00;-38;;;-41
2024-04-18 16:10;-45;-40;;-47
2024-04-18 16:20;-51;;;-54
2024-04-18 16:30;-57;-54;;-60
2024-04-18 16:40;-62;-59;;-66
2024-04-18 16:50;-67;-65;;-71
2024-04-18 17:00;-70;-70;;-70
2024-04-18 17:10;-73;-74;;-73
2024-04-18 17:20;-75;-76;;-76
2024-04-18 17:30;-77;-80;;-78
2024-04-18 17:40;-77;-82;;-80
2024-04-18 17:50;-78;-84;;-81
2024-04-18 18:00;-78;-85;;-81
2024-04-18 18:10;-78;-84;;-81
2024-04-18 18:20;-77;-83;;-80
2024-04-18 18:30;-76;-82;;-79
2024-04-18 18:40;-74;-81;;-77
2024-04-18 18:50;-73;-81;;-77
2024-04-18 19:00;-71;-79;;-76
2024-04-18 19:10;-68;-77;;-74
2024-04-18 19:20;-66;-76;;-75
2024-04-18 19:30;-63;-74;;-74
2024-04-18 19:40;-60;-72;;-72
2024-04-18 19:50;-57;-71;;-69
2024-04-18 20:00;-54;-69;;-68
2024-04-18 20:10;-51;-66;;-65
2024-04-18 20:20;-47;-62;;-62
2024-04-18 20:30;-44;-58;;-60
2024-04-18 20:40;-40;-55;;-56
2024-04-18 20:50;-36;-51;;-52
2024-04-18 21:00;-31;-47;;-46
2024-04-18 21:10;-26;-41;;-41
2024-04-18 21:20;-21;-35;;-36
2024-04-18 21:30;-16;-28;;-29
2024-04-18 21:40;-10;-21;;-23
2024-04-18 21:50;-4;-14;;-15
2024-04-18 22:00;2;-6;;-7
2024-04-18 22:10;8;3;;3
2024-04-18 22:20;14;13;;11
2024-04-18 22:30;20;25;;22
2024-04-18 22:40;26;36;;31
2024-04-18 22:50;33;47;;39
2024-04-18 23:00;40;57;;49
2024-04-18 23:10;46;66;;55
2024-04-18 23:20;52;71;;59
2024-04-18 23:30;58;77;;65
2024-04-18 23:40;63;82;;68
2024-04-18 23:50;67;88;;70
2024-04-19 00:00;70;89;;72
2024-04-19 00:10;72;89;;73
2024-04-19 00:20;73;89;;73
2024-04-19 00:30;73;87;;74
2024-04-19 00:40;72;86;;72
2024-04-19 00:50;69;84;;70
2024-04-19 01:00;66;81;;73
2024-04-19 01:10;63;74;;71
2024-04-19 01:20;59;70;;67
2024-04-19 01:30;54;66;;63
2024-04-19 01:40;49;61;;59
2024-04-19 01:50;43;57;;55
2024-04-19 02:00;37;51;;52
2024-04-19 02:10;31;47;;47
2024-04-19 02:20;24;42;;41
2024-04-19 02:30;17;37;;35
2024-04-19 02:40;10;32;;29
2024-04-19 02:50;2;27;;22
2024-04-19 03:00;-5;22;;16
2024-04-19 03:10;-12;16;;9
2024-04-19 03:20;-19;11;;3
2024-04-19 03:30;-26;6;;-4
2024-04-19 03:40;-34;-1;;-11
2024-04-19 03:50;-41;-7;;-18
2024-04-19 04:00;-48;-13;;-24
2024-04-19 04:10;-55;-21;;-30
2024-04-19 04:20;-63;-26;;-36
2024-04-19 04:30;-70;-32;;-42
2024-04-19 04:40;-77;-37;;-49
2024-04-19 04:50;-83;-42;;-54
2024-04-19 05:00;-89;-46;;-58
2024-04-19 05:10;-95;-48;;-63
2024-04-19 05:20;-99;-52;;-66
2024-04-19 05:30;-103;-54;;-70
2024-04-19 05:40;-106;-56;;-73
2024-04-19 05:50;-108;-58;;-73
2024-04-19 06:00;-110;-57;;-57
2024-04-19 06:10;-110;-59;;-57
2024-04-19 06:20;-110;-58;;-56
2024-04-19 06:30;-109;-58;;-54
2024-04-19 06:40;-108;-57;;-55
2024-04-19 06:50;-106;-55;;-52
2024-04-19 07:00;-104;-53;;-50
2024-04-19 07:10;-101;-52;;-47
2024-04-19 07:20;-98;-50;;-45
2024-04-19 07:30;-95;-49;;-45
2024-04-19 07:40;-91;-47;;-44
2024-04-19 07:50;-88;-45;;-42
2024-04-19 08:00;-84;-42;;-40
2024-04-19 08:10;-80;-39;;-35
2024-04-19 08:20;-76;-35;;-30
2024-04-19 08:30;-72;-31;;-24
2024-04-19 08:40;-68;-25;;-20
2024-04-19 08:50;-64;-20;;-14
2024-04-19 09:00;-59;-15;;-6
2024-04-19 09:10;-54;-8;;-1
2024-04-19 09:20;-48;0;;7
2024-04-19 09:30;-41;7;;15
2024-04-19 09:40;-34;16;;22
2024-04-19 09:50;-26;24;;33
2024-04-19 10:00;-18;33;;41
2024-04-19 10:10;-9;44;;51
2024-04-19 10:20;0;57;;62
2024-04-19 10:30;10;69;;74
2024-04-19 10:40;20;82;;86
2024-04-19 10:50;31;95;;100
2024-04-19 11:00;41;108;;106
2024-04-19 11:10;52;118;;118
2024-04-19 11:20;62;126;;128
2024-04-19 11:30;72;137;;138
2024-04-19 11:40;81;145;;145
2024-04-19 11:50;89;151;;151
2024-04-19 12:00;96;156;;155
2024-04-19 12:10;102;162;;158
2024-04-19 12:20;106;168;;161
2024-04-19 12:30;109;172;;164
2024-04-19 12:40;110;173;;164
2024-04-19 12:50;111;175;;165
2024-04-19 13:00;110;172;;165
2024-04-19 13:10;108;;;164
2024-04-19 13:20;106;174;;162
2024-04-19 13:30;102;171;;158
2024-04-19 13:40;99;167;;157
2024-04-19 13:50;95;162;;153
2024-04-19 14:00;90;160;;149
2024-04-19 14:10;85;155;;146
2024-04-19 14:20;80;150;;142
2024-04-19 14:30;74;145;;137
2024-04-19 14:40;68;140;;132
2024-04-19 14:50;62;134;;127
2024-04-19 15:00;55;128;;120
2024-04-19 15:10;48;123;;112
2024-04-19 15:20;41;116;;105
2024-04-19 15:30;33;108;;97
2024-04-19 15:40;26;103;;92
2024-04-19 15:50;18;96;;83
2024-04-19 16:00;10;94;;77
2024-04-19 16:10;1;84;;68
2024-04-19 16:20;-8;76;;61
2024-04-19 16:30;-16;66;;54
2024-04-19 16:40;-25;57;;48
2024-04-19 16:50;-34;49;;41
2024-04-19 17:00;-42;44;;45
2024-04-19 17:10;-50;39;;38
2024-04-19 17:20;-57;29;;33
2024-04-19 17:30;-63;25;;28
2024-04-19 17:40;-69;20;;23
2024-04-19 17:50;-73;17;;21
2024-04-19 18:00;-77;15;;17
2024-04-19 18:10;-80;11;;15
2024-04-19 18:20;-82;10;;13
2024-04-19 18:30;-83;10;;13
2024-04-19 18:40;-83;9;;13
2024-04-19 18:50;-84;8;;13
2024-04-19 19:00;-84;8;;12
2024-04-19 19:10;-83;6;;13
2024-04-19 19:20;-82;4;;14
2024-04-19 19:30;-81;5;;13
2024-04-19 19:40;-80;4;;15
2024-04-19 19:50;-79;6;;13
2024-04-19 20:00;-77;4;;16
2024-04-19 20:10;-76;6;;16
2024-04-19 20:20;-74;9;;17
2024-04-19 20:30;-72;11;;19
2024-04-19 20:40;-70;15;;21
2024-04-19 20:50;-68;16;;23
2024-04-19 21:00;-66;20;;26
2024-04-19 21:10;-63;27;;29
2024-04-19 21:20;-59;26;;31
2024-04-19 21:30;-56;27;;33
2024-04-19 21:40;-51;34;;36
2024-04-19 21:50;-46;32;;41
2024-04-19 22:00;-41;37;;43
2024-04-19 22:10;-35;39;;47
2024-04-19 22:20;-29;43;;52
2024-04-19 22:30;-23;48;;56
2024-04-19 22:40;-15;52;;62
2024-04-19 22:50;-8;58;;67
2024-04-19 23:00;1;63;;74
2024-04-19 23:10;9;70;;80
2024-04-19 23:20;18;78;;87
2024-04-19 23:30;28;85;;95
2024-04-19 23:40;37;99;;104
2024-04-19 23:50;47;103;;114
2024-04-20 00:00;56;116;;123
2024-04-20 00:10;65;119;;130
2024-04-20 00:20;72;131;;137
2024-04-20 00:30;79;135;;142
2024-04-20 00:40;84;143;;145
2024-04-20 00:50;88;149;;147
2024-04-20 01:00;90;152;;144
2024-04-20 01:10;91;153;;144
2024-04-20 01:20;90;148;;143
2024-04-20 01:30;89;153;;141
2024-04-20 01:40;87;147;;138
2024-04-20 01:50;84;141;;136
2024-04-20 02:00;80;135;;132
2024-04-20 02:10;75;134;;127
2024-04-20 02:20;71;132;;123
2024-04-20 02:30;65;130;;117
2024-04-20 02:40;59;122;;112
2024-04-20 02:50;53;112;;108
2024-04-20 03:00;46;108;;101
2024-04-20 03:10;39;101;;92
2024-04-20 03:20;31;93;;85
2024-04-20 03:30;23;84;;75
2024-04-20 03:40;15;72;;65
2024-04-20 03:50;7;71;;54
2024-04-20 04:00;-1;58;;44
2024-04-20 04:10;-9;48;;34
2024-04-20 04:20;-18;36;;24
2024-04-20 04:30;-26;25;;14
2024-04-20 04:40;-35;19;;4
2024-04-20 04:50;-44;8;;-4
2024-04-20 05:00;-52;-2;;-13
2024-04-20 05:10;-61;-12;;-22
2024-04-20 05:20;-69;-23;;-29
2024-04-20 05:30;-78;-32;;-36
2024-04-20 05:40;-85;-43;;-42
2024-04-20 05:50;-92;-49;;-48
2024-04-20 06:00;-98;-54;;-52
2024-04-20 06:10;-104;-58;;-58
2024-04-20 06:20;-108;-66;;-60
2024-04-20 06:30;-111;-70;;-62
2024-04-20 06:40;-114;-75;;-64
2024-04-20 06:50;-115;-75;;-65
2024-04-20 07:00;-116;-70;;-61
2024-04-20 07:10;-116;-70;;-61
2024-04-20 07:20;-115;-71;;-60
2024-04-20 07:30;-114;-69;;-59
2024-04-20 07:40;-112;-68;;-56
2024-04-20 07:50;-110;-65;;-54
2024-04-20 08:00;-108;-62;;-53
2024-04-20 08:10;-105;-60;;-50
2024-04-20 08:20;-103;-55;;-49
2024-04-20 08:30;-100;-55;;-47
2024-04-20 08:40;-97;-52;;-45
2024-04-20 08:50;-95;-50;;-44
2024-04-20 09:00;-92;-47;;-42
2024-04-20 09:10;-89;-44;;-38
2024-04-20 09:20;-85;-36;;-35
2024-04-20 09:30;-81;-33;;-33
2024-04-20 09:40;-77;-32;;-29
2024-04-20 09:50;-73;-26;;-27
2024-04-20 10:00;-67;-23;;-23
2024-04-20 10:10;-61;-18;;-20
2024-04-20 10:20;-54;-12;;-16
2024-04-20 10:30;-46;-8;;-11
2024-04-20 10:40;-38;-5;;-7
2024-04-20 10:50;-28;2;;-1
2024-04-20 11:00;-17;10;;4
2024-04-20 11:10;-6;16;;12
2024-04-20 11:20;6;25;;21
2024-04-20 11:30;19;33;;31
2024-04-20 11:40;32;44;;43
2024-04-20 11:50;46;55;;57
2024-04-20 12:00;59;68;;70
2024-04-20 12:10;72;78;;85
2024-04-20 12:20;84;91;;100
2024-04-20 12:30;95;101;;111
2024-04-20 12:40;104;115;;122
2024-04-20 12:50;112;128;;130
2024-04-20 13:00;118;136;;134
2024-04-20 13:10;122;140;;136
2024-04-20 13:20;124;142;;137
2024-04-20 13:30;125;143;;137
2024-04-20 13:40;124;145;;135
2024-04-20 13:50;123;144;;135
2024-04-20 14:00;120;142;;132
2024-04-20 14:10;117;138;;130
2024-04-20 14:20;113;136;;125
2024-04-20 14:30;108;130;;121
2024-04-20 14:40;104;130;;118
2024-04-20 14:50;99;123;;113
2024-04-20 15:00;93;116;;108
2024-04-20 15:10;87;113;;103
2024-04-20 15:20;81;107;;98
2024-04-20 15:30;75;101;;93
2024-04-20 15:40;68;94;;86
2024-04-20 15:50;60;86;;77
2024-04-20 16:00;53;77;;68
2024-04-20 16:10;45;66;;58
2024-04-20 16:20;36;58;;47
2024-04-20 16:30;27;46;;37
2024-04-20 16:40;18;35;;25
2024-04-20 16:50;9;25;;15
2024-04-20 17:00;-1;13;;11
2024-04-20 17:10;-11;1;;1
2024-04-20 17:20;-21;-9;;-8
2024-04-20 17:30;-31;-19;;-18
2024-04-20 17:40;-40;-29;;-26
2024-04-20 17:50;-49;-40;;-35
2024-04-20 18:00;-58;-48;;-43
2024-04-20 18:10;-65;-58;;-49
2024-04-20 18:20;-72;-65;;-55
2024-04-20 18:30;-77;-71;;-61
2024-04-20 18:40;-81;-74;;-64
2024-04-20 18:50;-85;-79;;-68
2024-04-20 19:00;-87;-84;;-69
2024-04-20 19:10;-89;-84;;-72
2024-04-20 19:20;-89;-87;;-71
2024-04-20 19:30;-89;-86;;-70
2024-04-20 19:40;-89;-84;;-68
2024-04-20 19:50;-88;-83;;-66
2024-04-20 20:00;-88;-82;;-65
2024-04-20 20:10;-87;-78;;-62
2024-04-20 20:20;-86;-73;;-60
2024-04-20 20:30;-85;-69;;-58
2024-04-20 20:40;-83;-64;;-55
2024-04-20 20:50;-82;-63;;-54
2024-04-20 21:00;-81;-60;;-51
2024-04-20 21:10;-80;-60;;-51
2024-04-20 21:20;-78;-55;;-49
2024-04-20 21:30;-77;-52;;-49
2024-04-20 21:40;-75;-51;;-48
2024-04-20 21:50;-72;-47;;-45
2024-04-20 22:00;-69;-46;;-43
2024-04-20 22:10;-65;-43;;-40
2024-04-20 22:20;-61;-38;;-37
2024-04-20 22:30;-56;-37;;-34
2024-04-20 22:40;-51;-33;;-31
2024-04-20 22:50;-45;-29;;-28
2024-04-20 23:00;-38;-24;;-22
2024-04-20 23:10;-31;-19;;-19
2024-04-20 23:20;-22;-14;;-13
2024-04-20 23:30;-13;-6;;-7
2024-04-20 23:40;-3;2;;1
2024-04-20 23:50;8;10;;10
2024-04-21 00:00;19;19;;19
2024-04-21 00:10;31;28;;32
2024-04-21 00:20;43;41;;46
2024-04-21 00:30;55;56;;60
2024-04-21 00:40;66;71;;75
2024-04-21 00:50;76;85;;88
2024-04-21 01:00;85;98;;100
2024-04-21 01:10;93;110;;110
2024-04-21 01:20;98;117;;115
2024-04-21 01:30;102;123;;118
2024-04-21 01:40;105;129;;120
2024-04-21 01:50;105;128;;118
2024-04-21 02:00;105;124;;119
2024-04-21 02:10;103;124;;115
2024-04-21 02:20;100;122;;112
2024-04-21 02:30;97;118;;110
2024-04-21 02:40;93;113;;106
2024-04-21 02:50;89;106;;102
2024-04-21 03:00;84;106;;98
2024-04-21 03:10;78;100;;91
2024-04-21 03:20;72;97;;87
2024-04-21 03:30;66;86;;81
2024-04-21 03:40;59;82;;76
2024-04-21 03:50;51;72;;70
2024-04-21 04:00;43;67;;62
2024-04-21 04:10;35;63;;54
2024-04-21 04:20;26;56;;45
2024-04-21 04:30;17;40;;35
2024-04-21 04:40;8;34;;25
2024-04-21 04:50;-2;22;;14
2024-04-21 05:00;-12;11;;2
2024-04-21 05:10;-21;0;;-8
2024-04-21 05:20;-31;-12;;-19
2024-04-21 05:30;-41;-17;;-30
2024-04-21 05:40;-51;-29;;-40
2024-04-21 05:50;-60;-39;;-50
2024-04-21 06:00;-69;-52;;-59
2024-04-21 06:10;-78;-63;;-68
2024-04-21 06:20;-86;-73;;-76
2024-04-21 06:30;-94;-84;;-84
2024-04-21 06:40;-101;-88;;-90
2024-04-21 06:50;-106;-92;;-95
2024-04-21 07:00;-111;-98;;-93
2024-04-21 07:10;-115;-103;;-97
2024-04-21 07:20;-117;-109;;-99
2024-04-21 07:30;-119;-119;;-101
2024-04-21 07:40;-119;-121;;-100
2024-04-21 07:50;-119;-120;;-99
2024-04-21 08:00;-119;-114;;-97
2024-04-21 08:10;-117;-110;;-94
2024-04-21 08:20;-116;-108;;-92
2024-04-21 08:30;-114;-106;;-90
2024-04-21 08:40;-111;-102;;-87
2024-04-21 08:50;-109;-98;;-85
2024-04-21 09:00;-107;-98;;-84
2024-04-21 09:10;-104;-95;;-82
2024-04-21 09:20;-102;-89;;-81
2024-04-21 09:30;-99;-89;;-80
2024-04-21 09:40;-97;-86;;-79
2024-04-21 09:50;-94;-84;;-76
2024-04-21 10:00;-91;-82;;-74
2024-04-21 10:10;-87;-79;;-71
2024-04-21 10:20;-83;-76;;-68
2024-04-21 10:30;-79;-70;;-65
2024-04-21 10:40;-74;-66;;-62
2024-04-21 10:50;-68;-61;;-57
2024-04-21 11:00;-61;-57;;-52
2024-04-21 11:10;-53;-51;;-48
2024-04-21 11:20;-44;-45;;-42
2024-04-21 11:30;-34;-37;;-36
2024-04-21 11:40;-22;-27;;-29
2024-04-21 11:50;-10;-18;;-20
2024-04-21 12:00;4;-8;;-9
2024-04-21 12:10;19;4;;4
2024-04-21 12:20;34;17;;19
2024-04-21 12:30;49;31;;36
2024-04-21 12:40;65;48;;55
2024-04-21 12:50;79;64;;73
2024-04-21 13:00;93;80;;85
2024-04-21 13:10;105;96;;99
2024-04-21 13:20;115;109;;110
2024-04-21 13:30;123;119;;118
2024-04-21 13:40;129;127;;123
2024-04-21 13:50;133;131;;125
2024-04-21 14:00;134;132;;125
2024-04-21 14:10;134;131;;125
2024-04-21 14:20;133;129;;123
2024-04-21 14:30;130;125;;121
2024-04-21 14:40;127;120;;118
2024-04-21 14:50;123;117;;114
2024-04-21 15:00;118;114;;110
2024-04-21 15:10;113;109;;104
2024-04-21 15:20;108;103;;99
2024-04-21 15:30;102;98;;94
2024-04-21 15:40;97;92;;89
2024-04-21 15:50;90;84;;82
2024-04-21 16:00;84;78;;76
2024-04-21 16:10;77;71;;70
2024-04-21 16:20;70;62;;62
2024-04-21 16:30;62;54;;54
2024-04-21 16:40;54;44;;44
2024-04-21 16:50;45;34;;34
2024-04-21 17:00;36;25;;26
2024-04-21 17:10;26;15;;15
2024-04-21 17:20;16;4;;6
2024-04-21 17:30;5;-7;;-6
2024-04-21 17:40;-5;-18;;-15
2024-04-21 17:50;-16;-29;;-26
2024-04-21 18:00;-27;-39;;-37
2024-04-21 18:10;-37;-51;;-47
2024-04-21 18:20;-47;-61;;-57
2024-04-21 18:30;-57;-73;;-67
2024-04-21 18:40;-65;-81;;-75
2024-04-21 18:50;-73;-90;;-84
2024-04-21 19:00;-79;-96;;-89
2024-04-21 19:10;-84;-102;;-94
2024-04-21 19:20;-89;-107;;-99
2024-04-21 19:30;-92;-110;;-101
2024-04-21 19:40;-94;-112;;-103
2024-04-21 19:50;-95;-115;;-103
2024-04-21 20:00;-95;-117;;-104
2024-04-21 20:10;-94;-117;;-103
2024-04-21 20:20;-93;-113;;-102
2024-04-21 20:30;-92;-110;;-100
2024-04-21 20:40;-90;-108;;-97
2024-04-21 20:50;-89;-105;;-97
2024-04-21 21:00;-87;-104;;-95
2024-04-21 21:10;-86;-101;;-93
2024-04-21 21:20;-85;-99;;-91
2024-04-21 21:30;-83;-96;;-88
2024-04-21 21:40;-82;-94;;-87
2024-04-21 21:50;-81;-92;;-85
2024-04-21 22:00;-79;-90;;-82
2024-04-21 22:10;-78;-86;;-82
2024-04-21 22:20;-76;-83;;-80
2024-04-21 22:30;-73;-79;;-76
2024-04-21 22:40;-70;-73;;-72
2024-04-21 22:50;-67;-69;;-69
2024-04-21 23:00;-63;-64;;-63
2024-04-21 23:10;-58;-59;;-59
2024-04-21 23:20;-52;-55;;-54
2024-04-21 23:30;-46;-51;;-51
2024-04-21 23:40;-38;-46;;-46
2024-04-21 23:50;-29;-39;;-41
2024-04-22 00:00;-20;-32;;-36
2024-04-22 00:10;-9;-24;;-29
2024-04-22 00:20;3;-15;;-21
2024-04-22 00:30;16;-5;;-10
2024-04-22 00:40;30;6;;5
2024-04-22 00:50;43;20;;19
2024-04-22 01:00;57;34;;36
2024-04-22 01:10;70;51;;53
2024-04-22 01:20;82;67;;68
2024-04-22 01:30;93;82;;82
2024-04-22 01:40;101;95;;92
2024-04-22 01:50;108;105;;100
2024-04-22 02:00;113;111;;105
2024-04-22 02:10;116;115;;107
2024-04-22 02:20;117;116;;106
2024-04-22 02:30;116;114;;104
2024-04-22 02:40;115;111;;101
2024-04-22 02:50;112;107;;99
2024-04-22 03:00;108;103;;96
2024-04-22 03:10;104;99;;92
2024-04-22 03:20;99;96;;87
2024-04-22 03:30;94;89;;82
2024-04-22 03:40;89;83;;78
2024-04-22 03:50;83;77;;72
2024-04-22 04:00;77;71;;66
2024-04-22 04:10;70;64;;60
2024-04-22 04:20;63;56;;55
2024-04-22 04:30;55;48;;48
2024-04-22 04:40;46;38;;38
2024-04-22 04:50;37;29;;30
2024-04-22 05:00;28;20;;21
2024-04-22 05:10;18;10;;11
2024-04-22 05:20;7;-1;;0
2024-04-22 05:30;-3;-11;;-10
2024-04-22 05:40;-14;-22;;-21
2024-04-22 05:50;-25;-33;;-32
2024-04-22 06:00;-35;-44;;-42
2024-04-22 06:10;-46;-54;;-54
2024-04-22 06:20;-56;-66;;-64
2024-04-22 06:30;-66;-76;;-74
2024-04-22 06:40;-76;-88;;-84
2024-04-22 06:50;-85;-97;;-94
2024-04-22 07:00;-93;-106;;-101
2024-04-22 07:10;-100;-115;;-109
2024-04-22 07:20;-106;-121;;-116
2024-04-22 07:30;-111;-126;;-121
2024-04-22 07:40;-115;-130;;-125
2024-04-22 07:50;-118;-132;;-127
2024-04-22 08:00;-120;-133;;-128
2024-04-22 08:10;-121;-134;;-128
2024-04-22 08:20;-121;-132;;-126
2024-04-22 08:30;-120;-130;;-125
2024-04-22 08:40;-119;-126;;-122
2024-04-22 08:50;-117;-123;;-120
2024-04-22 09:00;-115;-121;;-117
2024-04-22 09:10;-113;-118;;-116
2024-04-22 09:20;-111;-115;;-114
2024-04-22 09:30;-108;;;-111
2024-04-22 09:40;-106;-109;;-110
2024-04-22 09:50;-103;-107;;-107
2024-04-22 10:00;-100;-105;;-104
2024-04-22 10:10;-98;-101;;-103
2024-04-22 10:20;-95;-97;;-99
2024-04-22 10:30;-92;-95;;-95
2024-04-22 10:40;-88;-91;;-90
2024-04-22 10:50;-85;-86;;-86
2024-04-22 11:00;-81;-81;;-82
2024-04-22 11:10;-76;-76;;-78
2024-04-22 11:20;-71;-70;;-73
2024-04-22 11:30;-65;-63;;-69
2024-04-22 11:40;-58;-57;;-63
2024-04-22 11:50;-50;-51;;-57
2024-04-22 12:00;-41;-44;;-51
2024-04-22 12:10;-30;-35;;-43
2024-04-22 12:20;-17;-24;;-32
2024-04-22 12:30;-3;-13;;-20
2024-04-22 12:40;12;-2;;-7
2024-04-22 12:50;28;13;;11
2024-04-22 13:00;44;30;;32
2024-04-22 13:10;61;48;;52
2024-04-22 13:20;77;68;;72
2024-04-22 13:30;92;87;;89
2024-04-22 13:40;106;105;;105
2024-04-22 13:50;118;120;;117
2024-04-22 14:00;127;131;;125
2024-04-22 14:10;134;139;;130
2024-04-22 14:20;139;142;;132
2024-04-22 14:30;141;143;;132
2024-04-22 14:40;141;141;;131
2024-04-22 14:50;140;138;;130
2024-04-22 15:00;137;136;;128
2024-04-22 15:10;133;132;;124
2024-04-22 15:20;128;128;;120
2024-04-22 15:30;123;124;;117
2024-04-22 15:40;117;119;;112
2024-04-22 15:50;111;113;;107
2024-04-22 16:00;105;108;;102
2024-04-22 16:10;99;101;;96
2024-04-22 16:20;92;94;;90
2024-04-22 16:30;86;87;;84
2024-04-22 16:40;79;79;;78
2024-04-22 16:50;72;72;;72
2024-04-22 17:00;64;64;;63
2024-04-22 17:10;56;54;;54
2024-04-22 17:20;47;44;;45
2024-04-22 17:30;38;34;;35
2024-04-22 17:40;28;23;;25
2024-04-22 17:50;17;11;;13
2024-04-22 18:00;6;0;;3
2024-04-22 18:10;-5;-11;;-6
2024-04-22 18:20;-17;-22;;-17
2024-04-22 18:30;-28;-33;;-27
2024-04-22 18:40;-39;-45;;-38
2024-04-22 18:50;-50;-55;;-51
2024-04-22 19:00;-59;-66;;-59
2024-04-22 19:10;-69;-76;;-70
2024-04-22 19:20;-77;-85;;-79
2024-04-22 19:30;-83;-93;;-85
2024-04-22 19:40;-89;-99;;-93
2024-04-22 19:50;-94;-105;;-98
2024-04-22 20:00;-97;-108;;-103
2024-04-22 20:10;-99;-111;;-106
2024-04-22 20:20;-100;-112;;-109
2024-04-22 20:30;-100;-112;;-109
2024-04-22 20:40;-99;-111;;-109
2024-04-22 20:50;-98;-109;;-107
2024-04-22 21:00;-96;-107;;-105
2024-04-22 21:10;-94;-104;;-103
2024-04-22 21:20;-92;-102;;-102
2024-04-22 21:30;-90;-99;;-101
2024-04-22 21:40;-88;-98;;-99
2024-04-22 21:50;-86;-96;;-97
2024-04-22 22:00;-84;-94;;-95
2024-04-22 22:10;-82;-92;;-93
2024-04-22 22:20;-80;-90;;-91
2024-04-22 22:30;-79;-87;;-90
2024-04-22 22:40;-77;-84;;-87
2024-04-22 22:50;-75;-81;;-84
2024-04-22 23:00;-73;-77;;-82
2024-04-22 23:10;-70;-73;;-79
2024-04-22 23:20;-67;-69;;-76
2024-04-22 23:30;-63;-64;;-61
2024-04-22 23:40;-59;-60;;-57
2024-04-22 23:50;-54;-55;;-53
2024-04-23 00:00;-48;-50;;-49
2024-04-23 00:10;-41;-43;;-44
2024-04-23 00:20;-32;-37;;-38
2024-04-23 00:30;-22;-28;;-32
2024-04-23 00:40;-11;-20;;-23
2024-04-23 00:50;2;-10;;-13
2024-04-23 01:00;16;2;;1
2024-04-23 01:10;30;17;;15
2024-04-23 01:20;46;34;;34
2024-04-23 01:30;61;53;;52
2024-04-23 01:40;76;73;;71
2024-04-23 01:50;89;93;;87
2024-04-23 02:00;101;110;;102
2024-04-23 02:10;111;123;;113
2024-04-23 02:20;119;132;;118
2024-04-23 02:30;124;136;;121
2024-04-23 02:40;127;139;;122
2024-04-23 02:50;128;139;;120
2024-04-23 03:00;127;134;;119
2024-04-23 03:10;125;130;;117
2024-04-23 03:20;121;125;;114
2024-04-23 03:30;117;121;;111
2024-04-23 03:40;112;119;;108
2024-04-23 03:50;106;113;;102
2024-04-23 04:00;101;109;;98
2024-04-23 04:10;95;103;;92
2024-04-23 04:20;88;96;;84
2024-04-23 04:30;82;89;;78
2024-04-23 04:40;75;80;;72
2024-04-23 04:50;68;72;;66
2024-04-23 05:00;60;64;;59
2024-04-23 05:10;52;55;;51
2024-04-23 05:20;43;47;;42
2024-04-23 05:30;33;36;;32
2024-04-23 05:40;23;26;;21
2024-04-23 05:50;13;14;;12
2024-04-23 06:00;2;3;;1
2024-04-23 06:10;-10;-8;;-11
2024-04-23 06:20;-21;-18;;-22
2024-04-23 06:30;-33;-30;;-33
2024-04-23 06:40;-44;-43;;-45
2024-04-23 06:50;-56;-54;;-57
2024-04-23 07:00;-66;-65;;-63
2024-04-23 07:10;-76;-75;;-74
2024-04-23 07:20;-85;-85;;-84
2024-04-23 07:30;-94;-95;;-95
2024-04-23 07:40;-101;-103;;-102
2024-04-23 07:50;-107;-109;;-109
2024-04-23 08:00;-112;-115;;-114
2024-04-23 08:10;-116;-119;;-117
2024-04-23 08:20;-119;-122;;-119
2024-04-23 08:30;-120;-123;;-120
2024-04-23 08:40;-121;-122;;-119
2024-04-23 08:50;-121;-120;;-118
2024-04-23 09:00;-121;-117;;-117
2024-04-23 09:10;-119;-115;;-114
2024-04-23 09:20;-118;-113;;-112
2024-04-23 09:30;-115;-110;;-109
2024-04-23 09:40;-113;-107;;-108
2024-04-23 09:50;-110;-105;;-106
2024-04-23 10:00;-108;-102;;-106
2024-04-23 10:10;-105;-100;;-104
2024-04-23 10:20;-102;-98;;-102
2024-04-23 10:30;-99;;;-101
2024-04-23 10:40;-96;;;-97
2024-04-23 10:50;-93;-90;;-95
2024-04-23 11:00;-90;-87;;-91
2024-04-23 11:10;-87;-84;;-88
2024-04-23 11:20;-83;-81;;-84
2024-04-23 11:30;-79;-76;;-78
2024-04-23 11:40;-75;-72;;-74
2024-04-23 11:50;-70;-66;;-69
2024-04-23 12:00;-65;-60;;-65
2024-04-23 12:10;-58;-54;;-58
2024-04-23 12:20;-51;-47;;-52
2024-04-23 12:30;-42;-40;;-46
2024-04-23 12:40;-32;-31;;-39
2024-04-23 12:50;-20;-21;;-30
2024-04-23 13:00;-7;-10;;-15